Voltar ao catálogo

NOAA 16 DEB

AtivoSSO
NORAD 41534·DEBRIS·🇺🇸 United States

Lançado Sep 21, 2000 de Vandenberg Space Force Base

Loading…

Próximas Passagens (próximas 24 horas)

TLE

AtualizadoSource: Space-Track

Época: Sep 13, 2026, 11:14 UTC

1 41534U 00055NJ  26256.46866829  .00004499  00000-0  15658-2 0  9990
2 41534  98.8120 347.1246 0016480 271.2176  88.7120 14.35851267536012

Acompanhe NOAA 16 DEB em tempo real com AllMySat

Download on the App Store